Tracking 31027 objects as of 19-Jul-2025
HD Live streaming from Space Station
objects crossing your sky now

FENGYUN 1C DEB

Track FENGYUN 1C DEB now!
10-day predictions


NORAD ID: 29871
Int'l Code: 1999-025FR
Perigee: 719.3 km
Apogee: 802.7 km
Inclination: 99.0 °
Period: 99.9 minutes
Semi major axis: 7132 km
RCS: 0.051 m2 (small)
Launch date: May 10, 1999
Source: People's Republic of China (PRC)
Launch site: Taiyaun Space Center, China (TSC)

Note: This is SATELLITE DEBRIS
Your satellite tracking list
STARLINK-2062
Track 1 satellite(s)




NASA's NSSDC Master Catalog

Two Line Element Set (TLE):
1 29871U 99025FR  25199.41940054  .00001531  00000-0  47784-3 0  9998
2 29871  98.9547 145.2384 0058505 183.7097 301.0992 14.41399222965782
Source of the keplerian elements: AFSPC